GW4707 Weather Reports


time (UTC)temp
F
wind
direction
speed
knots
gust
knots
rain 1hr
in
rain 24hr
in
rain mn
in
humidity
%
barometer
mb
20260508085505 72 360 1.7 4.3 0.00 0.00 0.00 35 1020.5
20260508085004 73 360 1.7 3.5 0.00 0.00 0.00 35 1020.4
20260508084513 73 360 0.0 1.7 0.00 0.00 0.00 38 1020.3
20260508084006 73 360 0.0 3.5 0.00 0.00 0.00 40 1020.4
20260508083505 73 360 0.9 3.5 0.00 0.00 0.00 38 1020.4
20260508083019 73 360 0.0 4.3 0.00 0.00 0.00 39 1020.4
20260508082511 73 360 0.9 4.3 0.00 0.00 0.00 40 1020.5
20260508082008 73 360 0.0 1.7 0.00 0.00 0.00 43 1020.5
20260508081504 73 360 0.0 1.7 0.00 0.00 0.00 45 1020.5
20260508081003 72 89 0.0 2.6 0.00 0.00 0.00 45 1020.4
20260508080503 72 80 0.0 3.5 0.00 0.00 0.00 46 1020.4
20260508080011 72 360 0.9 4.3 0.00 0.00 0.00 46 1020.3
20260508075505 72 360 1.7 4.3 0.00 0.00 0.00 47 1020.3
20260508075004 73 61 0.0 3.5 0.00 0.00 0.00 48 1020.3
20260508074510 73 360 0.9 3.5 0.00 0.00 0.00 47 1020.3
20260508074005 73 55 0.0 3.5 0.00 0.00 0.00 46 1020.2
20260508073505 73 67 0.0 4.3 0.00 0.00 0.00 45 1020.1
20260508073020 72 218 0.9 7.0 0.00 0.00 0.00 45 1020.0
20260508072507 72 360 0.9 7.0 0.00 0.00 0.00 47 1020.0
20260508072009 71 360 0.9 2.6 0.00 0.00 0.00 51 1019.9
20260508071520 70 360 0.9 2.6 0.00 0.00 0.00 56 1019.9
20260508071010 70 360 0.9 2.6 0.00 0.00 0.00 58 1020.0
20260508070511 69 360 0.9 2.6 0.00 0.00 0.00 59 1019.8
20260508070006 69 360 0.0 2.6 0.00 0.00 0.00 61 1019.8
20260508065504 68 316 0.9 2.6 0.00 0.00 0.00 62 1019.7
20260508065006 68 348 0.9 2.6 0.00 0.00 0.00 61 1019.7
20260508064510 68 352 1.7 3.5 0.00 0.00 0.00 62 1019.7
20260508064007 68 344 0.9 4.3 0.00 0.00 0.00 63 1019.8
20260508063505 68 355 1.7 4.3 0.00 0.00 0.00 62 1019.7
20260508063013 68 28 1.7 3.5 0.00 0.00 0.00 63 1019.7
20260508062505 68 330 0.0 2.6 0.00 0.00 0.00 63 1019.8
20260508062006 67 360 0.0 2.6 0.00 0.00 0.00 64 1019.9
20260508061517 67 360 0.0 2.6 0.00 0.00 0.00 65 1019.8
20260508061007 67 41 0.0 2.6 0.00 0.00 0.00 65 1019.7
20260508060509 67 43 0.9 2.6 0.00 0.00 0.00 65 1019.6
20260508060026 66 44 0.9 2.6 0.00 0.00 0.00 66 1019.5
20260508055506 66 42 0.9 2.6 0.00 0.00 0.00 67 1019.5
20260508055009 66 40 0.0 2.6 0.00 0.00 0.00 66 1019.5
20260508054517 66 47 0.9 2.6 0.00 0.00 0.00 67 1019.5
20260508054003 66 78 0.0 1.7 0.00 0.00 0.00 68 1019.5
20260508053504 66 83 0.0 1.7 0.00 0.00 0.00 68 1019.6
20260508053011 66 360 0.0 0.9 0.00 0.00 0.00 69 1019.6
20260508052506 65 360 0.0 0.9 0.00 0.00 0.00 70 1019.6
20260508052009 65 51 0.0 1.7 0.00 0.00 0.00 69 1019.6
20260508051515 65 54 0.0 1.7 0.00 0.00 0.00 69 1019.6
20260508051007 65 52 0.0 1.7 0.00 0.00 0.00 70 1019.7
20260508050508 65 52 0.9 1.7 0.00 0.00 0.00 70 1019.7
20260508050017 64 264 0.0 1.7 0.00 0.00 0.00 70 1019.8
20260508045509 64 360 0.0 1.7 0.00 0.00 0.00 68 1019.7
20260508045012 63 360 0.0 1.7 0.00 0.00 0.00 68 1019.6
20260508044525 63 263 0.0 0.9 0.00 0.00 0.00 68 1019.5
20260508044010 63 360 0.0 1.7 0.00 0.00 0.00 67 1019.5
20260508043507 62 360 0.0 1.7 0.00 0.00 0.00 66 1019.4
20260508043008 62 263 0.0 2.6 0.00 0.00 0.00 66 1019.4
20260508042508 62 360 0.9 2.6 0.00 0.00 0.00 66 1019.6
20260508042004 61 360 0.9 2.6 0.00 0.00 0.00 67 1019.5
20260508041514 61 360 0.0 1.7 0.00 0.00 0.00 66 1019.4
20260508041004 61 360 0.0 1.7 0.00 0.00 0.00 67 1019.3
20260508040504 61 240 0.0 2.6 0.00 0.00 0.00 66 1019.4
20260508040018 61 360 0.0 2.6 0.00 0.00 0.00 66 1019.4
20260508035507 60 240 0.9 2.6 0.00 0.00 0.00 66 1019.4
20260508035008 60 238 0.0 1.7 0.00 0.00 0.00 66 1019.3
20260508034530 60 360 0.0 2.6 0.00 0.00 0.00 65 1019.3
20260508034013 60 360 0.0 3.5 0.00 0.00 0.00 65 1019.3
20260508033508 60 360 0.9 3.5 0.00 0.00 0.00 65 1019.2
20260508033032 60 360 1.7 3.5 0.00 0.00 0.00 65 1019.2
20260508032508 61 360 0.9 2.6 0.00 0.00 0.00 65 1019.2
20260508032004 60 242 0.9 2.6 0.00 0.00 0.00 65 1019.3
20260508031512 61 360 0.9 2.6 0.00 0.00 0.00 64 1019.3
20260508031004 61 360 0.9 2.6 0.00 0.00 0.00 64 1019.4
20260508030506 61 360 0.0 1.7 0.00 0.00 0.00 64 1019.3
20260508030014 61 360 0.0 1.7 0.00 0.00 0.00 64 1019.3
20260508025505 61 360 0.9 1.7 0.00 0.00 0.00 63 1019.2
20260508025006 60 360 0.0 1.7 0.00 0.00 0.00 63 1019.3
20260508024525 60 242 0.0 1.7 0.00 0.00 0.00 63 1019.3
20260508024006 60 242 0.0 3.5 0.00 0.00 0.00 63 1019.3
20260508023510 60 244 1.7 3.5 0.00 0.00 0.00 63 1019.4
20260508023025 60 242 0.0 2.6 0.00 0.00 0.00 62 1019.4
20260508022508 60 235 0.9 3.5 0.00 0.00 0.00 62 1019.4
20260508022013 60 243 0.9 3.5 0.00 0.00 0.00 61 1019.5
20260508021526 60 242 0.9 2.6 0.00 0.00 0.00 61 1019.5
20260508021004 60 257 0.9 2.6 0.00 0.00 0.00 61 1019.4
20260508020503 60 236 0.0 3.5 0.00 0.00 0.00 60 1019.3
20260508020012 60 235 1.7 4.3 0.00 0.00 0.00 60 1019.3
20260508015504 60 360 1.7 4.3 0.00 0.00 0.00 59 1019.3
20260508015006 60 231 1.7 4.3 0.00 0.00 0.00 59 1019.5
20260508014516 61 360 1.7 3.5 0.00 0.00 0.00 58 1019.5
20260508014007 61 360 0.9 2.6 0.00 0.00 0.00 58 1019.5
20260508013509 61 360 0.9 3.5 0.00 0.00 0.00 58 1019.4
20260508013024 61 360 0.9 3.5 0.00 0.00 0.00 58 1019.4
20260508012513 61 360 0.9 3.5 0.00 0.00 0.00 58 1019.4
20260508012008 61 360 0.0 2.6 0.00 0.00 0.00 57 1019.4
20260508011507 61 360 0.9 3.5 0.00 0.00 0.00 57 1019.4
20260508011004 62 360 0.9 3.5 0.00 0.00 0.00 57 1019.4
20260508010504 62 360 0.9 4.3 0.00 0.00 0.00 57 1019.4
20260508010021 62 360 0.0 4.3 0.00 0.00 0.00 57 1019.3
20260508005504 63 360 0.9 3.5 0.00 0.00 0.00 56 1019.3
20260508005004 63 360 0.9 2.6 0.00 0.00 0.00 55 1019.3
20260508004523 63 360 0.9 2.6 0.00 0.00 0.00 56 1019.4
20260508004008 63 360 0.0 1.7 0.00 0.00 0.00 55 1019.3
20260508003505 63 360 0.0 3.5 0.00 0.00 0.00 55 1019.4
20260508003021 63 360 0.9 3.5 0.00 0.00 0.00 55 1019.4
20260508002510 63 229 0.0 3.5 0.00 0.00 0.00 55 1019.4
20260508002008 63 360 0.0 3.5 0.00 0.00 0.00 55 1019.4
20260508001526 63 360 1.7 3.5 0.00 0.00 0.00 55 1019.4
20260508001009 63 360 0.9 3.5 0.00 0.00 0.00 56 1019.5
20260508000510 63 360 2.6 3.5 0.00 0.00 0.00 57 1019.6
20260508000007 63 360 0.9 4.3 0.00 0.00 0.00 57 1019.6
20260507235505 63 360 2.6 4.3 0.00 0.00 0.00 57 1019.6
20260507235008 63 360 1.7 5.2 0.00 0.00 0.00 57 1019.6
20260507234511 63 360 1.7 5.2 0.00 0.00 0.00 58 1019.6
20260507234005 63 360 2.6 4.3 0.00 0.00 0.00 58 1019.6
20260507233506 63 360 2.6 4.3 0.00 0.00 0.00 58 1019.7
20260507233016 63 360 1.7 4.3 0.00 0.00 0.00 58 1019.7
20260507232512 63 360 1.7 5.2 0.00 0.00 0.00 58 1019.8
20260507232007 62 360 1.7 5.2 0.00 0.00 0.00 58 1019.6
20260507231519 62 360 2.6 5.2 0.00 0.00 0.00 57 1019.6
20260507231007 63 360 1.7 4.3 0.00 0.00 0.00 57 1019.6
20260507230507 63 360 1.7 4.3 0.00 0.00 0.00 57 1019.7
20260507230035 63 360 1.7 4.3 0.00 0.00 0.00 57 1019.7
20260507225509 63 360 0.9 4.3 0.00 0.00 0.00 56 1019.7
20260507225010 63 360 1.7 5.2 0.00 0.00 0.00 56 1019.7
20260507224515 63 360 2.6 5.2 0.00 0.00 0.00 56 1019.6
20260507224005 63 360 1.7 4.3 0.00 0.00 0.00 56 1019.7
20260507223508 63 360 0.9 3.5 0.00 0.00 0.00 56 1019.8
20260507223017 63 360 0.9 3.5 0.00 0.00 0.00 56 1019.8
20260507222504 63 360 1.7 3.5 0.00 0.00 0.00 56 1019.9
20260507222013 63 360 0.9 2.6 0.00 0.00 0.00 56 1019.9
20260507221520 63 360 0.9 2.6 0.00 0.00 0.00 55 1019.9
20260507221010 63 360 0.9 4.3 0.00 0.00 0.00 55 1019.9
20260507220510 63 360 1.7 4.3 0.00 0.00 0.00 55 1019.9
20260507220024 63 360 1.7 4.3 0.00 0.00 0.00 55 1019.9
20260507215514 64 360 0.9 3.5 0.00 0.00 0.00 55 1019.9
20260507215010 64 360 0.9 2.6 0.00 0.00 0.00 55 1019.9
20260507214525 64 360 0.0 4.3 0.00 0.00 0.00 54 1020.0
20260507214012 64 360 1.7 4.3 0.00 0.00 0.00 54 1020.1
20260507213514 64 360 1.7 4.3 0.00 0.00 0.00 54 1020.1
20260507213013 65 360 2.6 5.2 0.00 0.00 0.00 53 1020.1
20260507212510 65 360 2.6 5.2 0.00 0.00 0.00 53 1020.1
20260507212012 65 360 2.6 4.3 0.00 0.00 0.00 53 1020.1
20260507211531 65 360 0.9 2.6 0.00 0.00 0.00 53 1020.0
20260507211007 65 360 0.0 3.5 0.00 0.00 0.00 52 1019.9
20260507210507 65 360 0.9 3.5 0.00 0.00 0.00 52 1019.9
20260507210033 65 360 0.9 3.5 0.00 0.00 0.00 52 1020.0
20260507205511 65 360 0.9 3.5 0.00 0.00 0.00 52 1019.9
20260507205008 65 360 1.7 3.5 0.00 0.00 0.00 52 1020.0
20260507204525 65 360 0.9 3.5 0.00 0.00 0.00 52 1020.0
20260507204009 65 360 1.7 4.3 0.00 0.00 0.00 51 1020.0
20260507203509 66 360 1.7 4.3 0.00 0.00 0.00 50 1019.9
20260507203033 66 360 1.7 4.3 0.00 0.00 0.00 50 1019.9
20260507202508 66 360 2.6 4.3 0.00 0.00 0.00 49 1020.0
20260507202005 67 360 2.6 4.3 0.00 0.00 0.00 48 1019.9
20260507201515 67 360 1.7 3.5 0.00 0.00 0.00 48 1020.0
20260507201007 68 360 1.7 3.5 0.00 0.00 0.00 47 1020.0
20260507200506 68 360 1.7 3.5 0.00 0.00 0.00 46 1019.9
20260507200018 69 360 0.9 2.6 0.00 0.00 0.00 45 1019.9
20260507195508 69 360 0.0 3.5 0.00 0.00 0.00 44 1020.0
20260507195008 69 360 0.0 3.5 0.00 0.00 0.00 44 1020.0
20260507194529 70 360 1.7 4.3 0.00 0.00 0.00 43 1020.0
20260507194007 70 360 2.6 5.2 0.00 0.00 0.00 42 1020.1
20260507193508 70 360 1.7 5.2 0.00 0.00 0.00 42 1020.1
20260507193032 70 360 1.7 4.3 0.00 0.00 0.00 42 1020.1
20260507192509 71 360 0.9 4.3 0.00 0.00 0.00 41 1020.0
20260507192010 71 360 2.6 7.0 0.00 0.00 0.00 41 1020.0
20260507191527 71 360 3.5 7.0 0.00 0.00 0.00 40 1020.0
20260507191009 71 360 3.5 7.8 0.00 0.00 0.00 39 1020.0
20260507190508 71 360 4.3 7.8 0.00 0.00 0.00 38 1020.0
20260507190018 71 360 3.5 7.8 0.00 0.00 0.00 38 1019.8
20260507185506 71 360 3.5 7.0 0.00 0.00 0.00 38 1019.7
20260507185008 71 360 2.6 7.0 0.00 0.00 0.00 38 1019.7
20260507184524 71 360 2.6 5.2 0.00 0.00 0.00 38 1019.8
20260507184009 71 360 0.0 2.6 0.00 0.00 0.00 39 1019.7
20260507183512 71 360 0.9 2.6 0.00 0.00 0.00 39 1019.7
20260507183040 71 360 0.0 0.9 0.00 0.00 0.00 37 1019.6
20260507182509 71 360 0.0 2.6 0.00 0.00 0.00 38 1019.6
20260507182010 71 360 0.0 3.5 0.00 0.00 0.00 38 1019.6
20260507181530 71 360 0.0 3.5 0.00 0.00 0.00 38 1019.5
20260507181013 71 360 0.9 3.5 0.00 0.00 0.00 37 1019.4
20260507180510 71 360 0.9 3.5 0.00 0.00 0.00 37 1019.4
20260507180033 72 360 0.9 2.6 0.00 0.00 0.00 42 1019.3
20260507175516 72 360 0.9 2.6 0.00 0.00 0.00 44 1019.1
20260507175006 73 360 0.0 2.6 0.00 0.00 0.00 40 1019.0
20260507174522 73 360 0.0 1.7 0.00 0.00 0.00 37 1019.0
20260507174008 73 360 0.0 1.7 0.00 0.00 0.00 34 1018.9
20260507173507 73 360 0.0 1.7 0.00 0.00 0.00 33 1019.0
20260507173024 73 360 0.0 2.6 0.00 0.00 0.00 33 1019.0
20260507172510 73 360 0.0 2.6 0.00 0.00 0.00 32 1018.9
20260507172010 73 360 0.9 3.5 0.00 0.00 0.00 32 1018.9
20260507171528 73 360 0.9 4.3 0.00 0.00 0.00 32 1019.0
20260507171007 73 360 1.7 4.3 0.00 0.00 0.00 31 1019.0
20260507170504 73 360 1.7 5.2 0.00 0.00 0.00 31 1019.0
20260507170017 74 360 2.6 5.2 0.00 0.00 0.00 30 1019.1
20260507165504 74 360 1.7 7.8 0.00 0.00 0.00 30 1019.1
20260507165010 74 360 2.6 7.8 0.00 0.00 0.00 29 1019.1
20260507164520 74 360 3.5 7.8 0.00 0.00 0.00 29 1019.1
20260507164007 74 360 2.6 7.8 0.00 0.00 0.00 29 1019.1
20260507163506 74 360 4.3 10.4 0.00 0.00 0.00 29 1019.1
20260507163021 74 360 4.3 10.4 0.00 0.00 0.00 29 1019.1
20260507162506 74 360 6.1 8.7 0.00 0.00 0.00 29 1019.1
20260507162010 75 360 4.3 9.6 0.00 0.00 0.00 29 1019.1
20260507161531 75 360 4.3 9.6 0.00 0.00 0.00 28 1019.0
20260507161006 75 360 3.5 9.6 0.00 0.00 0.00 29 1018.9
20260507160506 75 360 5.2 9.6 0.00 0.00 0.00 29 1018.9
20260507160037 75 360 5.2 9.6 0.00 0.00 0.00 29 1018.9
20260507155508 75 360 5.2 9.6 0.00 0.00 0.00 29 1019.0
20260507155004 75 360 2.6 9.6 0.00 0.00 0.00 31 1019.0
20260507154516 76 360 2.6 9.6 0.00 0.00 0.00 31 1018.9
20260507154010 76 360 2.6 7.8 0.00 0.00 0.00 31 1018.9
20260507153507 76 360 3.5 7.8 0.00 0.00 0.00 31 1019.0
20260507153022 76 360 2.6 7.8 0.00 0.00 0.00 30 1018.9
20260507152508 76 360 3.5 9.6 0.00 0.00 0.00 30 1019.0
20260507152007 77 360 3.5 9.6 0.00 0.00 0.00 29 1019.1
20260507151524 77 360 2.6 8.7 0.00 0.00 0.00 29 1019.1
20260507151008 77 360 2.6 9.6 0.00 0.00 0.00 29 1019.1
20260507150507 77 190 4.3 9.6 0.00 0.00 0.00 29 1019.2
20260507150027 77 213 5.2 10.4 0.00 0.00 0.00 29 1019.2
20260507145510 77 217 4.3 11.3 0.00 0.00 0.00 29 1019.2
20260507145007 77 148 6.1 11.3 0.00 0.00 0.00 29 1019.3
20260507144529 77 182 5.2 11.3 0.00 0.00 0.00 30 1019.3
20260507144012 77 207 3.5 9.6 0.00 0.00 0.00 31 1019.4
20260507143508 78 184 3.5 10.4 0.00 0.00 0.00 31 1019.3
20260507143020 78 193 5.2 10.4 0.00 0.00 0.00 31 1019.3
20260507142506 77 131 5.2 10.4 0.00 0.00 0.00 32 1019.3
20260507142007 77 179 3.5 10.4 0.00 0.00 0.00 33 1019.3
20260507141524 76 360 5.2 10.4 0.00 0.00 0.00 34 1019.3
20260507141004 76 164 4.3 12.2 0.00 0.00 0.00 34 1019.3
20260507140504 76 182 5.2 12.2 0.00 0.00 0.00 35 1019.3
20260507140009 76 211 3.5 12.2 0.00 0.00 0.00 36 1019.3
20260507135503 76 194 5.2 12.2 0.00 0.00 0.00 36 1019.3
20260507135004 76 360 5.2 13.9 0.00 0.00 0.00 35 1019.3
20260507134510 76 360 6.1 13.9 0.00 0.00 0.00 35 1019.4
20260507134005 76 360 5.2 12.2 0.00 0.00 0.00 35 1019.5
20260507133506 76 360 6.1 13.0 0.00 0.00 0.00 36 1019.5
20260507133017 77 360 8.7 13.0 0.00 0.00 0.00 35 1019.5
20260507132504 77 360 5.2 11.3 0.00 0.00 0.00 37 1019.5
20260507132006 78 360 5.2 11.3 0.00 0.00 0.00 37 1019.5
20260507131520 78 186 2.6 9.6 0.00 0.00 0.00 36 1019.5
20260507131009 78 360 4.3 9.6 0.00 0.00 0.00 36 1019.5
20260507130504 78 202 3.5 9.6 0.00 0.00 0.00 35 1019.5
20260507130021 79 180 3.5 9.6 0.00 0.00 0.00 34 1019.4
20260507125504 79 178 2.6 12.2 0.00 0.00 0.00 33 1019.4
20260507125004 79 215 7.0 12.2 0.00 0.00 0.00 32 1019.4
20260507124513 80 188 5.2 12.2 0.00 0.00 0.00 32 1019.4
20260507124004 81 220 6.1 12.2 0.00 0.00 0.00 31 1019.4
20260507123505 81 202 1.7 10.4 0.00 0.00 0.00 31 1019.5
20260507123017 80 154 3.5 8.7 0.00 0.00 0.00 31 1019.4
20260507122505 80 161 3.5 7.8 0.00 0.00 0.00 30 1019.4
20260507122009 79 200 2.6 8.7 0.00 0.00 0.00 32 1019.4
20260507121522 78 216 0.9 8.7 0.00 0.00 0.00 33 1019.4
20260507121008 76 161 2.6 6.1 0.00 0.00 0.00 37 1019.5
20260507120510 75 227 0.9 6.1 0.00 0.00 0.00 42 1019.5
20260507120022 75 70 3.5 7.0 0.00 0.00 0.00 41 1019.6
20260507115510 76 80 3.5 7.8 0.00 0.00 0.00 39 1019.6
20260507115004 77 84 3.5 7.8 0.00 0.00 0.00 39 1019.6
20260507114510 77 123 1.7 6.1 0.00 0.00 0.00 38 1019.6
20260507114004 78 86 2.6 7.0 0.00 0.00 0.00 37 1019.6
20260507113503 79 79 4.3 8.7 0.00 0.00 0.00 35 1019.6
20260507113017 80 67 1.7 8.7 0.00 0.00 0.00 32 1019.7
20260507112504 81 87 1.7 6.1 0.00 0.00 0.00 31 1019.7
20260507112007 82 205 0.9 5.2 0.00 0.00 0.00 30 1019.7
20260507111518 81 55 0.9 5.2 0.00 0.00 0.00 31 1019.6
20260507111006 81 113 1.7 4.3 0.00 0.00 0.00 32 1019.6
20260507110507 80 233 0.9 6.1 0.00 0.00 0.00 33 1019.6
20260507110030 79 134 0.9 7.0 0.00 0.00 0.00 34 1019.7
20260507105507 78 188 3.5 8.7 0.00 0.00 0.00 34 1019.8
20260507105007 76 169 2.6 8.7 0.00 0.00 0.00 35 1019.9
20260507104525 75 160 3.5 8.7 0.00 0.00 0.00 38 1020.0
20260507104014 73 76 0.0 6.1 0.00 0.00 0.00 47 1020.0
20260507103506 72 89 1.7 7.8 0.00 0.00 0.00 48 1020.0
20260507103012 72 66 0.9 7.8 0.00 0.00 0.00 48 1020.0
20260507102503 72 57 3.5 7.0 0.00 0.00 0.00 48 1020.0
20260507102004 72 122 1.7 7.8 0.00 0.00 0.00 50 1019.9
20260507101517 72 66 0.9 7.8 0.00 0.00 0.00 52 1020.0
20260507101004 72 113 0.9 7.0 0.00 0.00 0.00 53 1020.0
20260507100508 71 123 1.7 8.7 0.00 0.00 0.00 52 1020.0
20260507100025 71 113 2.6 8.7 0.00 0.00 0.00 52 1020.0
20260507095507 71 360 0.9 7.8 0.00 0.00 0.00 50 1020.0
20260507095007 72 80 1.7 7.8 0.00 0.00 0.00 49 1020.0
20260507094526 72 360 2.6 7.8 0.00 0.00 0.00 47 1019.9
20260507094007 73 82 2.6 7.0 0.00 0.00 0.00 45 1020.0
20260507093511 73 109 2.6 7.0 0.00 0.00 0.00 45 1020.0
20260507093036 73 159 0.9 5.2 0.00 0.00 0.00 46 1020.1
20260507092509 73 74 0.9 5.2 0.00 0.00 0.00 47 1020.1
20260507092003 72 123 0.9 4.3 0.00 0.00 0.00 48 1020.1
20260507091518 72 360 1.7 7.0 0.00 0.00 0.00 49 1020.0
20260507091006 72 360 2.6 7.0 0.00 0.00 0.00 49 1020.0
20260507090507 71 360 1.7 7.8 0.00 0.00 0.00 48 1020.2
20260507090019 71 360 2.6 7.8 0.00 0.00 0.00 49 1020.2